428  
ASUS45 KCYS 161610  
RWRWY  
 
WYOMING REGIONAL WEATHER ROUNDUP  
NATIONAL WEATHER SERVICE CHEYENNE WY  
1000 AM MDT TUE OCT 16 2018  
 
NOTE: "FAIR" INDICATES FEW OR NO CLOUDS BELOW 12,000 FEET  
WITH NO SIGNIFICANT WEATHER AND/OR S TO VISIBILITY
.  
 
WYZ001-161700-   
..YELLOWSTONE NATIONAL PARK
 
 
 
CITY SKY/WX TMP DP RH WIND PRES REMARKS
 
LK YELLOWSTONE N/A 29 26 89 VRB3 30.47F  
W YELLOWSTONE NOT AVBL  
 

 
WYZ002>013-054>058-071-098>099-161700-   
..NORTHERN WYOMING
 
 
 
CITY SKY/WX TMP DP RH WIND PRES REMARKS
 
JACKSON SUNNY 32 23 69 CALM 30.46S  
CODY SUNNY 37 26 64 CALM 30.43R  
GREYBULL CLOUDY 33 27 78 CALM 30.43S  
WORLAND MOSUNNY 32 28 85 CALM 30.42R  
SHERIDAN PTSUNNY 47 36 65 CALM 30.35R  
BUFFALO CLOUDY 47 32 56 CALM 30.37R  
GILLETTE CLOUDY 49 30 48 W14 30.34R  
HULETT CLOUDY 46 30 53 SW7 30.33S  
NEWCASTLE FAIR 37 28 70 CALM 30.37R  
 

 
WYZ014>020-022>026-101>103-161700-   
..CENTRAL WYOMING
 
 
 
CITY SKY/WX TMP DP RH WIND PRES REMARKS
 
BIG PINEY SUNNY 31 17 56 CALM 30.46R  
PINEDALE SUNNY 32 21 64 CALM 30.46S  
DUBOIS FAIR 34 21 60 N3 30.44S  
LANDER SUNNY 36 27 69 E3 30.41R  
RIVERTON SUNNY 38 24 57 NW5 30.43R WCI 34  
CASPER SUNNY 44 26 49 SW15 30.41R  
DOUGLAS SUNNY 45 29 53 NW10 30.39S  
 

 
WYZ021-027>030-104>119-161700-   
..SOUTHERN WYOMING
 
 
 
CITY SKY/WX TMP DP RH WIND PRES REMARKS
 
EVANSTON SUNNY 35 23 61 N7 30.41R WCI 29  
KEMMERER SUNNY 37 19 48 NE5 30.43S WCI 34  
FORT BRIDGER FAIR 35 24 62 NE3 30.46S  
ROCK SPRINGS SUNNY 32 22 66 CALM 30.44R  
DIXON FAIR 37 16 43 E5 30.44F WCI 33  
RAWLINS SUNNY 34 21 59 E5 30.44S WCI 30  
SARATOGA FAIR 34 19 55 SE9 30.45S WCI 26  
LARAMIE SUNNY 32 21 64 S7 30.43R WCI 26  
CHEYENNE SUNNY 42 24 49 NW12 30.41R  
TORRINGTON SUNNY 45 30 55 W10 30.36S  
PINE BLUFFS FAIR 37 27 65 W10 30.40S WCI 30  
 

 
 
 
CLICK HERE TO GO TO PREVIOUS BULLETINS.

The Nexlab WY Page Main Text Page